This demonstration page uses our WeatherBlox Daily Observations layout. Learn more.

Left ArrowRight Arrow

Hourly Observations for November 29, 2018

Temp ( °F °C ) Dew Point ( °F °C ) Humidity (%) Winds ( mph kmh ) Pressure ( in mb ) Visibility ( mi km ) Precip ( " mm )
12:52 am 00:52 Partly Cloudy 24 -4.4 19 -7.2 81 81 SE 6 9 29.81 1010 10 16 0.00 0.00
1:52 am 01:52 Clear 23 -5 19 -7.2 85 85 SSE 5 7 29.81 1010 10 16 0.00 0.00
2:52 am 02:52 Clear 22 -5.6 18 -7.8 85 85 SSE 6 9 29.82 1010 10 16 0.00 0.00
3:52 am 03:52 Mostly Clear 23 -5 19 -7.2 85 85 SSE 5 7 29.82 1010 10 16 0.00 0.00
4:52 am 04:52 Mostly Cloudy 22 -5.6 18 -7.8 85 85 ENE 3 6 29.80 1009 10 16 0.00 0.00
5:52 am 05:52 Partly Cloudy 22 -5.6 19 -7.2 89 89 Calm 29.81 1009 9 14 0.00 0.00
6:52 am 06:52 Mostly Cloudy 23 -5 19 -7.2 85 85 SSE 6 9 29.83 1010 10 16 0.00 0.00
7:52 am 07:52 Mostly Cloudy 24 -4.4 20 -6.7 84 84 SSE 8 13 29.81 1010 9 14 0.00 0.00
8:52 am 08:52 Cloudy 26 -3.3 21 -6.1 81 81 SE 5 7 29.83 1010 7 11 0.00 0.00
9:52 am 09:52 Cloudy 28 -2.2 23 -5 81 81 Calm 29.88 1012 8 13 0.00 0.00
10:52 am 10:52 Cloudy 30 -1.1 24 -4.4 79 79 Calm 29.89 1012 7 11 0.00 0.00
11:52 am 11:52 Cloudy 31 -0.6 25 -3.9 79 79 S 5 7 29.84 1011 8 13 0.00 0.00
12:52 pm 12:52 Cloudy 33 0.6 26 -3.3 75 75 SW 6 9 29.85 1011 7 11 0.00 0.03
1:52 pm 13:52 Cloudy with Mist and Fog 33 0.6 29 -1.7 85 85 SE 5 7 29.84 1011 4 6 0.01 0.25
2:52 pm 14:52 Cloudy with Mist and Fog 33 0.6 30 -1.1 89 89 S 5 7 29.85 1011 4 6 0.01 0.25
3:36 pm 15:36 Cloudy with Light Rain 34 1.1 30 -1.1 85 85 Calm 29.85 1011 4 6 0.01 0.25
3:52 pm 15:52 Cloudy with Light Rain 33 0.6 30 -1.1 89 89 ESE 3 6 29.87 1012 4 6 0.01 0.25
4:52 pm 16:52 Cloudy with Light Rain 34 1.1 30 -1.1 85 85 Calm 29.89 1012 3 5 0.02 0.51
5:52 pm 17:52 Cloudy with Light Rain 34 1.1 31 -0.6 89 89 N 3 6 29.89 1012 4 6 0.01 0.25
6:52 pm 18:52 Cloudy with Mist and Fog 34 1.1 31 -0.6 89 89 Calm 29.89 1012 4 6 0.00 0.03
7:52 pm 19:52 Cloudy with Light Rain 34 1.1 31 -0.6 89 89 Calm 29.89 1012 4 6 0.00 0.03
8:52 pm 20:52 Cloudy with Mist and Fog 34 1.1 32 0 92 92 Calm 29.90 1013 5 8 0.00 0.03
9:52 pm 21:52 Cloudy with Mist and Fog 34 1.1 31 -0.6 89 89 Calm 29.93 1013 3 5 0.00 0.00
10:52 pm 22:52 Cloudy with Mist and Fog 34 1.1 31 -0.6 89 89 ENE 3 6 29.92 1013 4 6 0.00 0.00
11:17 pm 23:17 Cloudy with Mist and Fog 33 0.6 31 -0.6 92 92 Calm 29.97 1015 4 6 0.00 0.00
11:25 pm 23:25 Cloudy with Mist and Fog 33 0.6 31 -0.6 92 92 Calm 29.97 1015 3 5 0.00 0.00
11:52 pm 23:52 Cloudy with Mist and Fog 34 1.1 31 -0.6 89 89 Calm 29.94 1014 3 5 0.00 0.00

Powered by AerisWeather